Weather History for TNCC - September, 2013

Change the Weather History Date:

Sunday, September 15, 2013

  Actual Average Record
Temperature  
Mean Temperature 83 °F -  
Max Temperature 89 °F 88 °F 96 °F (2003)
Min Temperature 77 °F 78 °F 75 °F (1999)
Cooling Degree Days 18    
Growing Degree Days 33 (Base 50)    
Moisture  
Dew Point 77 °F    
Average Humidity 76    
Maximum Humidity 89    
Minimum Humidity 60    
Precipitation  
Precipitation 0.55 in 0.08 in - ()
Sea Level Pressure  
Sea Level Pressure 29.86 in    
Wind  
Wind Speed 13 mph ()    
Max Wind Speed 18 mph    
Max Gust Speed -    
Visibility 7.2 miles    
Events Rain , Thunderstorm    
Averages and records for this station are not official NWS values.
T = Trace of Precipitation, MM = Missing Value Source: Averaged Metar Reports

Daily Weather History Graph

Daily Weather History Graph

Search for Another Location

Airport or City:

Trip Planner

Search our weather history database for the weather conditions in past years. The results will help you decide how hot, cold, wet, or windy it might be!

Date:

Astronomy

Sep. 15, 2013 Rise Set
Actual Time 6:25 AM AST 6:36 PM AST
Civil Twilight 6:03 AM AST 6:57 PM AST
Nautical Twilight 5:39 AM AST 7:22 PM AST
Astronomical Twilight 5:14 AM AST 7:47 PM AST
Moon 3:31 PM AST (9/15) 2:34 AM AST (9/15)
Length of Visible Light 12h 53m
Length of Day
12h 11m
Waxing Gibbous, 82% of the Moon is Illuminated
Sep 15
Waxing Gibbous
Sep 19
Full
Sep 26
Last Quarter
Oct 4
New
Oct 11
First Quarter

Hourly Weather History & Observations

Time (AST) Temp. Heat Index Dew Point Humidity Pressure Visibility Wind Dir Wind Speed Gust Speed Precip Events Conditions
12:00 AM 84.2 °F 94.1 °F 77.0 °F 79% 29.83 in 6.2 mi East 17.3 mph - N/A   Partly Cloudy
1:00 AM 84.2 °F 94.1 °F 77.0 °F 79% 29.83 in 6.2 mi East 18.4 mph - N/A   Scattered Clouds
2:00 AM 84 °F - 78 °F 78% 29.85 in 37 mi ESE 12.7 mph - -   Partly Cloudy
2:00 AM 84.2 °F 96.1 °F 78.8 °F 84% 29.83 in 6.2 mi East 15.0 mph - N/A   Scattered Clouds
3:00 AM 84.2 °F 94.1 °F 77.0 °F 79% 29.83 in 6.2 mi ESE 12.7 mph - N/A   Scattered Clouds
4:00 AM 84.2 °F 94.1 °F 77.0 °F 79% 29.83 in 6.2 mi East 12.7 mph - N/A   Scattered Clouds
5:00 AM 84 °F - 77 °F 75% 29.85 in 19 mi ESE 6.9 mph - -   Partly Cloudy
5:00 AM 84.2 °F 94.1 °F 77.0 °F 79% 29.86 in 6.2 mi ESE 13.8 mph - N/A   Scattered Clouds
6:00 AM 80.6 °F 87.1 °F 77.0 °F 89% - 6.2 mi ESE 10.4 mph - N/A Rain , Thunderstorm Thunderstorms and Rain
7:00 AM 78.8 °F - 75.2 °F 89% 29.89 in 1.9 mi SE 12.7 mph - N/A Rain , Thunderstorm Thunderstorms and Rain
8:00 AM 83 °F - 79 °F 84% 29.88 in 12 mi ESE 8.1 mph - - Thunderstorm Light Thunderstorm
8:00 AM 82.4 °F 92.4 °F 78.8 °F 89% 29.86 in 6.2 mi ESE 10.4 mph - N/A   Partly Cloudy
9:00 AM 86.0 °F 99.3 °F 78.8 °F 79% 29.89 in 6.2 mi ESE 11.5 mph - N/A   Scattered Clouds
10:00 AM 87.8 °F 99.7 °F 77.0 °F 70% 29.89 in 6.2 mi ESE 16.1 mph - N/A   Scattered Clouds
11:00 AM 89 °F - 77 °F 60% 29.91 in 19 mi East 16.1 mph - -   Scattered Clouds
11:00 AM 87.8 °F 99.7 °F 77.0 °F 70% 29.89 in 6.2 mi East 13.8 mph - N/A   Scattered Clouds
12:00 PM 89.6 °F 102.2 °F 77.0 °F 66% 29.89 in 6.2 mi East 16.1 mph - N/A   Partly Cloudy
1:00 PM 89.6 °F 102.2 °F 77.0 °F 66% 29.86 in 6.2 mi East 17.3 mph - N/A   Partly Cloudy
2:00 PM 89.6 °F 102.2 °F 77.0 °F 66% 29.83 in 6.2 mi East 15.0 mph - N/A   Partly Cloudy
3:00 PM 89.6 °F 102.2 °F 77.0 °F 66% 29.80 in 6.2 mi East 15.0 mph - N/A   Partly Cloudy
4:00 PM 87.8 °F 99.7 °F 77.0 °F 70% 29.80 in 6.2 mi ESE 17.3 mph - N/A   Partly Cloudy
5:00 PM 86.0 °F 96.9 °F 77.0 °F 74% 29.80 in 6.2 mi ESE 16.1 mph - N/A   Scattered Clouds
6:00 PM 86.0 °F 96.9 °F 77.0 °F 74% 29.80 in 6.2 mi East 16.1 mph - N/A   Partly Cloudy
7:00 PM 84.2 °F 94.1 °F 77.0 °F 79% 29.83 in 6.2 mi East 16.1 mph - N/A   Partly Cloudy
8:00 PM 84.2 °F 94.1 °F 77.0 °F 79% 29.86 in 6.2 mi East 16.1 mph - N/A   Partly Cloudy
9:00 PM 84.2 °F 94.1 °F 77.0 °F 79% 29.89 in 6.2 mi ESE 16.1 mph - N/A   Partly Cloudy
10:00 PM 84.2 °F 94.1 °F 77.0 °F 79% 29.92 in 6.2 mi ESE 15.0 mph - N/A   Partly Cloudy
11:00 PM 83 °F - 77 °F 77% 29.92 in 25 mi ESE 11.5 mph - -   Scattered Clouds
11:00 PM 84.2 °F 94.1 °F 77.0 °F 79% 29.92 in 6.2 mi ESE 10.4 mph - N/A   Partly Cloudy